Вернуться в каталог

COSMOS 736

АктивенВоенныеLEO
NORAD 7825·PAYLOAD·🇷🇺 Russia

Запущен May 28, 1975 с Plesetsk Cosmodrome

Loading…

Ближайшие Пролёты (ближайшие 24 часа)

TLE

СвежийSource: Space-Track

Эпоха: Sep 14, 2026, 11:58 UTC

1 07825U 75045E   26257.49911428  .00000004  00000-0  13842-3 0  9998
2 07825  74.0210 332.1178 0010880 354.6195  16.8798 12.46889882335076

Отслеживайте COSMOS 736 в реальном времени с AllMySat

Download on the App Store